Cloud_Cover
0 0 0 0 4 0 0 0 29 0 0 7 40 59 5 5 5 5 5 5 5 5 5 5 5 5 6 5 28 7 19 100 89 60 27 87 100 100 100 72 100 58 93 62
0 0 0 0 0 0 0 0 0 0 0 4 5 5 5 5 5 5 13 85 99 99 39 5 10 5 5 6 95 90 98 91 100 94 97 100 30 29 33 74 47 36 29 55
0 0 0 0 0 0 0 0 27 0 0 0 0 2 5 5 5 2 3 2 2 2 2 4 3 3 3 11 11 82 36 47 5 5 5 5 32 44 17 60 99 61 56 16
0 0 0 0 0 0 0 0 0 0 0 0 0 0 0 0 0 0 0 0 0 0 0 0 0 0 0 0 0 0 4 5 0 0 0 0 0 0 1 5 2 3 6 7
5 0 0 2 0 0 0 0 0 0 0 0 0 0 0 0 0 0 0 0 0 0 0 0 0 0 0 0 0 0 0 4 2 4 0 0 0 0 0 0 0 0 0 0
12 2 0 0 0 0 0 0 0 0 0 0 0 0 0 0 0 0 0 0 0 0 0 0 0 3 5 5 5 5 5 5 5 5 2 1 0 0 0 0 0 0 0 0
40 46 0 2 0 0 2 0 0 2 2 0 0 0 0 0 0 0 0 0 0 0 0 0 0 0 0 1 1 1 0 0 4 4 0 0 0 1 1 2 2 0 0 0
100 73 11 97 4 4 0 0 1 0 0 1 1 0 0 0 0 0 0 0 0 0 0 0 0 0 0 4 5 5 5 5 5 5 5 4 4 3 0 0 0 0 0 0
100 100 100 100 7 21 5 0 0 0 5 5 4 0 0 0 0 0 0 0 1 3 5 5 5 4 0 1 5 5 5 6 11 56 71 90 98 100 99 91 76 90 81 42
86 98 100 100 62 5 19 5 1 0 0 5 5 5 5 2 0 0 0 0 0 0 2 5 21 28 37 60 28 5 5 5 26 5 5 7 5 4 4 0 0 2 3 4
6 96 72 100 64 86 14 50 5 6 0 0 1 5 1 2 4 3 2 0 0 0 0 2 5 20 20 10 5 1 1 2 0 4 4 2 1 0 0 0 0 0 0 0
100 97 82 100 100 100 100 100 90 40 95 32 5 5 5 5 4 0 0 0 0 0 4 0 0 0 0 0 0 0 2 0 0 0 0 4 5 5 5 5 5 3 0 0
100 100 100 89 100 100 100 100 100 100 100 12 95 5 5 38 74 35 6 2 0 0 4 1 0 0 3 0 0 0 4 4 5 3 5 9 5 19 16 12 0 2 0 0
100 100 100 100 100 100 100 100 100 100 100 96 85 25 6 5 5 8 5 5 5 3 0 0 0 0 0 3 0 1 2 3 5 5 5 5 5 5 100 30 3 5 2 0
100 100 100 100 100 100 100 100 100 100 100 100 100 41 5 5 5 5 5 5 5 5 5 5 5 4 4 5 5 5 5 5 5 12 20 5 5 14 61 10 5 12 5 12
96 100 98 100 100 100 100 100 100 100 100 100 100 100 100 24 23 5 6 5 5 5 32 15 5 55 28 5 5 5 5 0 6 5 5 5 5 8 5 20 5 5 5 5
100 100 98 87 100 100 100 100 100 100 100 100 100 100 100 100 100 53 100 9 5 5 5 5 16 50 84 5 6 52 13 5 5 5 5 5 6 100 100 100 22 5 5 5
100 100 100 100 91 100 100 100 100 100 100 100 100 100 100 100 100 100 30 92 5 5 5 5 5 5 54 44 6 100 100 94 99 94 32 20 68 100 94 100 98 7 18 59
100 100 100 100 100 84 83 78 100 100 100 100 100 100 100 100 100 100 95 7 22 5 29 8 12 85 92 84 58 100 100 100 100 100 100 100 100 100 100 100 100 100 100 100
100 100 100 100 100 100 71 83 83 100 100 100 100 100 100 100 100 100 100 100 99 72 32 20 80 20 20 100 100 100 99 100 100 100 100 100 100 100 100 100 100 100 100 100
100 100 100 100 100 100 82 98 91 73 100 100 100 100 100 100 100 100 100 100 100 100 97 42 56 100 100 100 100 100 100 100 100 100 100 100 100 100 100 100 100 100 100 100
100 100 100 100 100 93 62 68 100 100 89 100 100 100 100 100 100 98 99 74 100 100 100 100 100 8 57 100 100 100 100 100 88 98 100 100 100 100 100 98 99 100 100 100
100 100 100 100 98 82 97 100 93 100 100 99 28 45 99 100 100 100 100 100 100 46 99 100 96 2 0 68 100 100 100 100 87 100 100 100 100 100 100 100 100 100 100 100
100 100 100 100 100 100 100 98 100 83 100 78 91 71 16 16 95 100 100 100 100 100 100 100 96 34 100 96 99 44 99 96 58 100 85 100 100 100 100 100 100 100 100 100
100 100 100 77 78 86 29 40 96 100 99 100 92 55 98 63 60 69 100 92 100 100 100 100 98 100 8 32 30 100 87 15 93 25 74 100 100 100 100 100 100 100 100 100
100 100 100 76 18 12 15 78 100 100 100 100 100 100 93 99 87 54 17 87 100 100 100 100 100 94 38 77 50 98 100 100 60 77 45 61 100 100 100 100 100 100 100 100
100 86 78 8 5 5 5 97 100 100 100 100 100 100 99 100 68 11 88 98 100 100 79 100 99 100 100 100 100 100 100 100 99 99 84 63 100 100 100 100 100 100 100 100